Hourly Data Report for September 20, 2017

All times are specified in Local Standard Time (LST). Add 1 hour to adjust for Daylight Saving Time where and when it is observed.

NAPPAN AUTO
NOVA SCOTIA

45°45'34.400" N
64°14'29.200" W
19.80 m
8203702
71311
XNP

Download Data

Hourly Data (September 2017)
Hourly Data Report for September 20, 2017
Temp Definition
°C
Dew Point Temp Definition
°C
Rel Hum Definition
%
Wind Dir Definition
10's deg

Wind Spd Definition
km/h
Visibility Definition
km
Stn Press Definition
kPa
Hmdx Definition


Wind Chill Definition


Weather Definition


TIME
00:00 20.0 19.0 94 17 9   101.84 27   LegendNANA
01:00 19.9 19.0 94 24 2   101.82     LegendNANA
02:00 20.0 19.1 95 16 6   101.75 27   LegendNANA
03:00 20.1 19.1 94 16 6   101.71 27   LegendNANA
04:00 19.8 19.1 96 2 4   101.69     LegendNANA
05:00 20.1 19.0 93 13 4   101.67 27   LegendNANA
06:00 20.0 18.9 94 11 1   101.66 27   LegendNANA
07:00 20.0 19.0 94 8 5   101.65 27   LegendNANA
08:00 20.3 19.2 93 1 6   101.60 27   LegendNANA
09:00 20.9 19.3 91 9 7   101.62 28   LegendNANA
10:00 21.3 19.1 88 13 9   101.59 28   LegendNANA
11:00 22.0 19.0 83 32 4   101.53 29   LegendNANA
12:00 22.1 19.2 84 36 8   101.48 29   LegendNANA
13:00 23.3 19.5 79 2 7   101.40 30   LegendNANA
14:00 24.3 19.0 72 2 11   101.34 31   LegendNANA
15:00 25.1 19.4 71 3 9   101.29 32   LegendNANA
16:00 24.3 19.2 73 2 13   101.26 31   LegendNANA
17:00 22.8 19.1 80 3 20   101.30 30   LegendNANA
18:00 21.1 18.7 86 3 16   101.33 28   LegendNANA
19:00 20.1 18.4 90 3 17   101.36 26   LegendNANA
20:00 19.1 18.1 94 3 17   101.38     LegendNANA
21:00 18.7 17.6 93 4 11   101.45     LegendNANA
22:00 18.0 16.6 92 2 18   101.50     LegendNANA
23:00 17.3 15.9 92 3 15   101.53     LegendNANA

Notes on Data Quality.

Legend

  • E = Estimated
  • M = Missing
  • NA = Not Available
  • ‡ = Partner data that is not subject to review by the National Climate Archives
Date modified: